DM2KB-13 Weather Reports


time (UTC)temp
F
wind
direction
speed
knots
gust
knots
rain 1hr
in
rain 24hr
in
rain mn
in
humidity
%
barometer
mb
20260506121625 47 6 0.9 3.5 0.06 1.19 1.08 99 1007.0
20260506121125 47 32 1.7 3.5 0.07 1.19 1.08 98 1007.0
20260506120624 47 354 1.7 6.1 0.07 1.18 1.07 98 1006.9
20260506120124 47 23 1.7 5.2 0.08 1.18 1.07 99 1006.9
20260506115624 47 79 1.7 5.2 0.09 1.18 1.07 99 1006.8
20260506115124 47 54 1.7 4.3 0.09 1.18 1.07 99 1006.8
20260506114623 47 27 1.7 6.1 0.09 1.17 1.06 99 1006.7
20260506114123 47 23 1.7 6.1 0.09 1.18 1.06 99 1006.7
20260506113623 47 13 1.7 5.2 0.08 1.17 1.05 99 1006.7
20260506113122 48 44 1.7 3.5 0.09 1.17 1.05 99 1006.7
20260506112622 48 14 1.7 3.5 0.08 1.16 1.04 99 1006.8
20260506112122 48 55 1.7 4.3 0.08 1.15 1.03 99 1006.7
20260506111622 48 13 1.7 3.5 0.07 1.14 1.02 99 1006.7
20260506111121 48 358 0.9 5.2 0.06 1.13 1.01 99 1006.7
20260506110621 48 18 0.9 2.6 0.06 1.12 1.00 99 1006.6
20260506110121 48 54 0.9 3.5 0.05 1.11 0.99 99 1006.6
20260506105620 48 2 0.9 5.2 0.05 1.10 0.98 99 1006.6
20260506105120 48 135 0.9 2.6 0.05 1.10 0.98 99 1006.6
20260506104620 48 23 1.7 5.2 0.05 1.09 0.97 99 1006.6
20260506104120 48 31 1.7 6.1 0.05 1.09 0.97 99 1006.5
20260506103619 48 5 1.7 3.5 0.06 1.09 0.97 99 1006.5
20260506103119 47 44 1.7 4.3 0.05 1.08 0.96 99 1006.4
20260506102619 48 32 1.7 3.5 0.05 1.08 0.96 99 1006.4
20260506102118 48 36 1.7 3.5 0.05 1.07 0.95 99 1006.3
20260506101618 48 30 1.7 2.6 0.06 1.07 0.95 99 1006.3
20260506101118 48 23 1.7 2.6 0.06 1.07 0.95 99 1006.2
20260506100618 47 34 1.7 5.2 0.06 1.06 0.94 99 1006.2
20260506100117 47 29 1.7 7.0 0.06 1.06 0.94 99 1006.2
20260506095617 48 2 1.7 2.6 0.05 1.05 0.93 99 1006.1
20260506095117 48 40 1.7 6.1 0.06 1.05 0.93 99 1006.1
20260506094617 48 76 1.7 5.2 0.05 1.04 0.92 99 1006.0
20260506094116 48 355 1.7 5.2 0.05 1.04 0.92 99 1006.0
20260506093616 48 24 1.7 6.1 0.05 1.03 0.91 99 1006.0
20260506093116 48 21 2.6 7.8 0.05 1.03 0.91 99 1006.0
20260506092615 48 16 2.6 6.1 0.05 1.03 0.91 99 1006.0
20260506092115 48 17 2.6 7.8 0.04 1.02 0.90 98 1006.0
20260506091615 48 16 2.6 7.0 0.04 1.01 0.89 99 1005.8
20260506091115 48 30 2.6 5.2 0.04 1.01 0.89 99 1005.8
20260506090614 48 18 1.7 5.2 0.03 1.00 0.88 99 1005.8
20260506090114 49 352 1.7 6.1 0.03 1.00 0.88 99 1005.8
20260506085614 49 23 1.7 5.2 0.03 1.00 0.88 99 1005.7
20260506085113 49 15 1.7 6.1 0.02 0.99 0.87 99 1005.7
20260506084613 48 21 2.6 6.1 0.03 0.99 0.87 99 1005.7
20260506084113 48 42 2.6 5.2 0.03 0.99 0.87 99 1005.6
20260506083613 49 33 1.7 7.8 0.02 0.98 0.86 99 1005.6
20260506083112 49 13 1.7 3.5 0.03 0.98 0.86 99 1005.6
20260506082612 49 77 1.7 3.5 0.03 0.98 0.86 99 1005.5
20260506082112 49 19 1.7 4.3 0.03 0.98 0.86 99 1005.5
20260506081611 49 31 1.7 6.1 0.03 0.97 0.85 99 1005.5
20260506081111 49 29 0.9 3.5 0.04 0.97 0.85 99 1005.5
20260506080611 49 20 1.7 2.6 0.04 0.97 0.85 99 1005.5
20260506080111 49 38 2.6 5.2 0.05 0.97 0.85 99 1005.4
20260506073109 49 94 0.9 6.1 0.06 0.95 0.83 99 1005.3
20260506072609 49 31 0.9 5.2 0.07 0.95 0.83 99 1005.3
20260506072108 49 23 0.9 1.7 0.08 0.95 0.83 99 1005.3
20260506071608 49 23 0.9 2.6 0.07 0.94 0.82 99 1005.2
20260506071108 49 11 0.0 0.9 0.07 0.93 0.81 99 1005.2
20260506070608 49 11 0.9 2.6 0.07 0.93 0.81 99 1005.2
20260506070107 49 36 0.0 4.3 0.07 0.92 0.80 99 1005.2
20260506062105 49 346 1.7 4.3 0.08 0.98 0.75 99 1005.1
20260506061605 49 38 1.7 3.5 0.09 0.98 0.75 99 1005.1
20260506061104 49 25 1.7 4.3 0.09 0.97 0.74 99 1005.0
20260506060604 48 34 1.7 4.3 0.09 0.97 0.74 98 1005.0
20260506060104 48 15 1.7 6.1 0.09 0.96 0.73 99 1005.0
20260506051101 49 24 1.7 6.1 0.07 1.07 0.65 98 1004.9
20260506050601 49 5 0.9 5.2 0.07 1.07 0.65 98 1004.9
20260506045100 49 314 0.9 2.6 0.05 1.04 0.62 98 1004.9
20260506044600 49 2 1.7 3.5 0.05 1.03 0.61 98 1004.8
20260506044059 49 24 1.7 3.5 0.05 1.06 0.61 98 1004.8
20260506043559 49 34 1.7 4.3 0.05 1.05 0.60 98 1004.8
20260506043059 49 23 1.7 3.5 0.05 1.05 0.60 98 1004.8
20260506042558 49 22 1.7 2.6 0.04 1.04 0.59 98 1004.8
20260506042058 49 323 1.7 2.6 0.04 1.04 0.59 98 1004.8
20260506041558 49 25 1.7 4.3 0.05 1.04 0.59 98 1004.7
20260506041058 49 2 1.7 1.7 0.04 1.03 0.58 98 1004.8
20260506040557 49 15 0.9 3.5 0.05 1.03 0.58 98 1004.8
20260506040057 49 335 0.9 1.7 0.04 1.02 0.57 98 1004.8
20260506035557 49 304 0.9 3.5 0.05 1.02 0.57 98 1004.8
20260506035056 49 21 0.9 2.6 0.06 1.02 0.57 98 1004.8
20260506034556 49 337 0.9 7.0 0.05 1.01 0.56 98 1004.8
20260506034056 49 33 0.9 1.7 0.06 1.06 0.56 98 1004.8
20260506033556 49 21 0.9 3.5 0.05 1.05 0.55 98 1004.8
20260506033055 49 15 0.9 3.5 0.06 1.05 0.55 98 1004.9
20260506032555 49 28 1.7 2.6 0.06 1.05 0.55 98 1004.9
20260506032055 49 304 1.7 4.3 0.07 1.05 0.55 98 1004.9
20260506031554 49 21 1.7 8.7 0.06 1.04 0.54 98 1004.9
20260506031054 49 91 2.6 3.5 0.07 1.04 0.54 98 1005.0
20260506030554 49 344 1.7 6.1 0.07 1.03 0.53 98 1005.0
20260506030054 49 57 1.7 8.7 0.08 1.03 0.53 98 1005.0
20260506025553 49 12 1.7 7.0 0.08 1.02 0.52 98 1005.0
20260506025053 49 6 1.7 7.0 0.08 1.01 0.51 98 1005.1
20260506024553 49 34 1.7 4.3 0.09 1.01 0.51 98 1005.1
20260506024053 49 43 1.7 3.5 0.09 1.01 0.50 98 1005.2
20260506023552 49 22 0.9 3.5 0.10 1.01 0.50 98 1005.2
20260506023052 49 57 0.9 4.3 0.10 1.00 0.49 98 1005.2
20260506022552 49 32 1.7 5.2 0.10 1.00 0.49 98 1005.2
20260506022051 50 2 1.7 9.6 0.10 0.99 0.48 98 1005.2
20260506021551 50 15 0.9 3.5 0.11 0.99 0.48 98 1005.2
20260506021051 50 8 1.7 2.6 0.11 0.98 0.47 98 1005.2
20260506020551 50 16 1.7 4.3 0.11 0.97 0.46 98 1005.2
20260506020050 50 54 1.7 6.1 0.11 0.96 0.45 98 1005.2
20260506015550 50 9 1.7 6.1 0.10 0.95 0.44 98 1005.2
20260506015050 50 92 1.7 7.0 0.10 0.94 0.43 98 1005.3
20260506014549 50 50 1.7 7.0 0.09 0.93 0.42 98 1005.3
20260506014049 50 13 1.7 2.6 0.08 0.92 0.41 98 1005.3
20260506013549 50 329 1.7 3.5 0.08 0.91 0.40 98 1005.3
20260506013049 50 21 1.7 5.2 0.08 0.90 0.39 98 1005.4
20260506012548 50 8 1.7 6.1 0.08 0.90 0.39 98 1005.4
20260506012048 50 314 1.7 5.2 0.08 0.89 0.38 98 1005.4
20260506011548 50 29 1.7 5.2 0.07 0.88 0.37 98 1005.4
20260506011047 50 34 1.7 3.5 0.07 0.87 0.36 98 1005.5
20260506010547 50 37 1.7 7.0 0.07 0.86 0.35 98 1005.5
20260506010047 50 9 1.7 5.2 0.07 0.85 0.34 98 1005.5
20260506005547 50 327 1.7 5.2 0.07 0.85 0.34 98 1005.5
20260506005046 50 6 2.6 6.1 0.07 0.84 0.33 98 1005.6
20260506004546 50 33 2.6 6.1 0.08 0.84 0.33 98 1005.6
20260506004046 50 35 1.7 4.3 0.09 0.84 0.33 98 1005.6
20260506003545 50 17 1.7 4.3 0.10 0.83 0.32 98 1005.7
20260506003045 50 71 1.7 5.2 0.11 0.82 0.31 98 1005.6
20260506002545 50 40 2.6 6.1 0.13 0.82 0.31 98 1005.7
20260506002045 50 21 1.7 6.1 0.15 0.81 0.30 98 1005.8
20260506001544 50 71 1.7 6.1 0.16 0.81 0.30 98 1005.9
20260506001044 50 21 1.7 2.6 0.16 0.80 0.29 98 1005.9
20260506000544 50 34 2.6 5.2 0.17 0.79 0.28 98 1005.9
20260506000043 50 27 2.6 8.7 0.17 0.78 0.27 98 1006.0
20260505235543 50 51 1.7 7.0 0.18 0.78 0.27 98 1006.0
20260505235043 50 19 1.7 5.2 0.19 0.77 0.26 98 1006.1
20260505234543 50 36 2.6 4.3 0.20 0.76 0.25 98 1006.1
20260505234042 50 65 2.6 7.8 0.21 0.75 0.24 97 1006.2
20260505233542 50 4 1.7 6.1 0.20 0.73 0.22 97 1006.2
20260505233042 50 344 1.7 6.1 0.19 0.71 0.20 97 1006.3
20260505232541 50 4 1.7 5.2 0.19 0.69 0.18 97 1006.3
20260505232041 50 72 2.6 5.2 0.17 0.66 0.15 97 1006.3
20260505231541 51 344 2.6 7.8 0.18 0.65 0.14 97 1006.3
20260505231041 51 29 1.7 5.2 0.19 0.64 0.13 97 1006.4
20260505230540 51 36 1.7 5.2 0.18 0.62 0.11 97 1006.3
20260505230040 51 32 1.7 3.5 0.18 0.61 0.10 97 1006.4
20260505225540 51 317 1.7 3.5 0.17 0.60 0.09 97 1006.5
20260505225039 51 350 1.7 3.5 0.16 0.58 0.07 97 1006.5
20260505224539 51 11 1.7 4.3 0.14 0.56 0.05 97 1006.5
20260505224039 51 18 1.7 5.2 0.12 0.54 0.03 97 1006.5
20260505223539 51 15 1.7 2.6 0.11 0.53 0.02 97 1006.5
20260505223038 51 26 1.7 6.1 0.11 0.52 0.01 97 1006.5
20260505222538 51 18 1.7 7.0 0.09 0.50 0.50 97 1006.6
20260505222038 51 48 1.7 5.2 0.08 0.49 0.49 97 1006.6
20260505221538 51 29 1.7 4.3 0.07 0.47 0.47 97 1006.6
20260505221037 51 358 2.6 7.0 0.05 0.45 0.45 97 1006.6
20260505220537 51 46 1.7 7.0 0.04 0.44 0.44 97 1006.7
20260505220037 51 14 1.7 2.6 0.03 0.43 0.43 97 1006.7
20260505215536 51 29 1.7 5.2 0.03 0.43 0.43 97 1006.8
20260505215036 51 36 1.7 3.5 0.02 0.42 0.42 97 1006.8
20260505214536 51 13 1.7 3.5 0.02 0.42 0.42 97 1006.9
20260505214036 51 6 2.6 5.2 0.02 0.42 0.42 97 1006.9
20260505213535 51 40 2.6 5.2 0.02 0.42 0.42 97 1006.9
20260505213035 51 2 1.7 5.2 0.01 0.41 0.41 97 1007.0
20260505212535 51 0 0.9 3.5 0.01 0.41 0.41 97 1007.0
20260505212034 51 2 1.7 3.5 0.01 0.41 0.41 97 1007.0
20260505211534 51 22 1.7 4.3 0.00 0.40 0.40 97 1007.0
20260505211034 51 42 1.7 3.5 0.00 0.40 0.40 97 1007.1
20260505210534 51 1 1.7 3.5 0.00 0.40 0.40 96 1007.1
20260505210033 51 39 1.7 5.2 0.00 0.40 0.40 96 1007.1
20260505205533 51 67 1.7 5.2 0.00 0.40 0.40 96 1007.1
20260505205033 51 28 2.6 6.1 0.00 0.40 0.40 96 1007.1
20260505204532 51 39 1.7 7.8 0.00 0.40 0.40 96 1007.2
20260505204032 51 44 1.7 3.5 0.00 0.41 0.40 96 1007.2
20260505203532 51 38 1.7 5.2 0.00 0.41 0.40 96 1007.2
20260505203032 51 335 1.7 3.5 0.00 0.41 0.40 96 1007.2
20260505202531 51 18 1.7 5.2 0.00 0.41 0.40 96 1007.2
20260505202031 51 4 1.7 2.6 0.00 0.41 0.40 96 1007.2
20260505201531 51 357 1.7 3.5 0.00 0.41 0.40 96 1007.2
20260505201030 51 49 1.7 5.2 0.00 0.41 0.40 96 1007.2
20260505200530 51 13 1.7 6.1 0.00 0.41 0.40 96 1007.1
20260505200030 51 28 1.7 2.6 0.00 0.41 0.40 96 1007.2
20260505195530 51 24 1.7 5.2 0.00 0.41 0.40 96 1007.3
20260505195029 51 59 0.9 3.5 0.00 0.41 0.40 96 1007.3
20260505194529 51 8 0.9 5.2 0.00 0.41 0.40 96 1007.2
20260505194029 51 50 1.7 2.6 0.00 0.42 0.40 96 1007.3
20260505193528 51 46 1.7 7.0 0.00 0.42 0.40 96 1007.2
20260505193028 51 36 0.9 3.5 0.00 0.42 0.40 96 1007.2
20260505192528 51 55 0.9 3.5 0.00 0.42 0.40 95 1007.2
20260505192028 51 19 1.7 2.6 0.00 0.42 0.40 95 1007.2
20260505191527 51 32 0.9 5.2 0.00 0.42 0.40 95 1007.2
20260505191027 51 29 0.9 2.6 0.00 0.42 0.40 95 1007.2
20260505190527 51 29 0.9 2.6 0.00 0.42 0.40 95 1007.2
20260505190026 51 349 0.9 1.7 0.00 0.42 0.40 95 1007.2
20260505185526 51 5 1.7 5.2 0.00 0.42 0.40 95 1007.1
20260505185026 51 27 1.7 6.1 0.00 0.42 0.40 95 1007.1
20260505184526 51 44 1.7 7.8 0.00 0.42 0.40 95 1007.1
20260505184025 52 15 1.7 6.1 0.00 0.43 0.40 95 1007.1
20260505183525 52 23 1.7 4.3 0.00 0.43 0.40 95 1007.1
20260505183025 52 69 1.7 3.5 0.00 0.43 0.40 95 1007.1
20260505182524 52 3 1.7 6.1 0.00 0.43 0.40 95 1007.1
20260505182024 52 58 1.7 4.3 0.00 0.43 0.40 95 1007.0
20260505181524 52 29 1.7 7.0 0.00 0.43 0.40 95 1007.1
20260505181024 52 20 1.7 5.2 0.00 0.43 0.40 95 1007.1
20260505180523 52 17 1.7 6.1 0.00 0.43 0.40 95 1007.1
20260505180023 52 13 0.9 2.6 0.00 0.43 0.40 95 1007.1
20260505175523 52 57 1.7 3.5 0.00 0.43 0.40 95 1007.2
20260505175023 52 15 1.7 3.5 0.00 0.43 0.40 95 1007.2
20260505174522 52 48 1.7 3.5 0.00 0.43 0.40 95 1007.2
20260505174022 52 44 1.7 4.3 0.00 0.43 0.40 95 1007.2
20260505173522 52 23 0.9 4.3 0.00 0.43 0.40 95 1007.3
20260505173021 52 2 0.9 2.6 0.00 0.43 0.40 95 1007.3
20260505172521 52 42 1.7 2.6 0.00 0.43 0.40 95 1007.3
20260505172021 52 52 1.7 6.1 0.00 0.43 0.40 95 1007.3
20260505171521 52 17 1.7 3.5 0.00 0.43 0.40 95 1007.3
20260505171020 52 42 1.7 7.0 0.00 0.43 0.40 95 1007.3
20260505170520 52 27 1.7 2.6 0.00 0.43 0.40 95 1007.3
20260505170020 52 38 1.7 4.3 0.00 0.43 0.40 95 1007.3
20260505165519 52 18 1.7 3.5 0.00 0.43 0.40 95 1007.3
20260505165019 52 336 0.9 4.3 0.00 0.43 0.40 95 1007.4
20260505164519 52 20 0.9 3.5 0.00 0.43 0.40 95 1007.3
20260505164019 52 53 1.7 2.6 0.00 0.43 0.40 95 1007.3
20260505163518 52 348 1.7 4.3 0.00 0.43 0.40 95 1007.3
20260505163018 52 76 1.7 3.5 0.00 0.43 0.40 95 1007.3
20260505162518 52 345 1.7 3.5 0.00 0.43 0.40 95 1007.4
20260505162017 52 8 1.7 6.1 0.00 0.43 0.40 95 1007.4
20260505161517 52 33 1.7 5.2 0.00 0.43 0.40 95 1007.4
20260505161017 52 32 1.7 4.3 0.00 0.43 0.40 95 1007.4
20260505160517 52 29 2.6 3.5 0.00 0.43 0.40 96 1007.4
20260505153015 53 11 1.7 4.3 0.00 0.43 0.40 96 1007.7
20260505152514 53 34 1.7 5.2 0.00 0.43 0.40 96 1007.7
20260505152014 53 15 1.7 1.7 0.00 0.43 0.40 96 1007.7
20260505151514 52 77 2.6 6.1 0.00 0.43 0.40 96 1007.8
20260505151013 53 40 1.7 5.2 0.00 0.43 0.40 96 1007.8
20260505150513 53 11 2.6 3.5 0.00 0.43 0.40 96 1007.9
20260505140510 52 23 2.6 10.4 0.00 0.43 0.40 97 1008.1
20260505125006 53 9 1.7 6.1 0.01 0.43 0.40 98 1008.5
20260505124505 53 45 0.9 6.1 0.01 0.43 0.40 98 1008.4
20260505124005 53 68 0.9 3.5 0.01 0.43 0.40 98 1008.5
20260505123505 53 68 0.9 2.6 0.01 0.43 0.40 98 1008.5
20260505123004 52 25 1.7 3.5 0.01 0.43 0.40 98 1008.5
20260505122504 52 45 1.7 5.2 0.01 0.43 0.40 98 1008.5
20260505122004 52 9 1.7 3.5 0.01 0.43 0.40 98 1008.6